When you browse on this site, cookies collect data to enhance your experience and personalize the content and advertising you see.
Visit our Privacy Policy to learn more. By continuing to use the site, you agree to this use of cookies and data.
  • în România
  • Lista ţărilor
  • Pe 7 zile
  • Temperatura apei
  • Meteo pe hartă
  • Widget-uri
  • user-avatar
    Intrare

    Meteo pe oră la Uyna

    Astăzi, 30 Martie, Luni

    Timp Temperatura Precipitaţii Vânt Presiune Umiditate
    00:00 +20°C° 0 mm 0 m/s 741 mmHg 99%
    01:00 +20°C° 0 mm 0 m/s 741 mmHg 99%
    02:00 +20°C° 0 mm 0 m/s 740 mmHg 99%
    03:00 +20°C° 0 mm 0 m/s 740 mmHg 99%
    04:00 +20°C° 0 mm 0 m/s 740 mmHg 99%
    05:00 +20°C° 0 mm 0 m/s 741 mmHg 99%
    06:00 +20°C° 0 mm 0 m/s 741 mmHg 99%
    07:00 +21°C° 0.1 mm 0 m/s 741 mmHg 93%
    08:00 +23°C° 0.1 mm 0 m/s 742 mmHg 86%
    09:00 +25°C° 0.1 mm 0 m/s 742 mmHg 80%
    10:00 +29°C° 0 mm 1 m/s 741 mmHg 68%
    11:00 +31°C° 0 mm 1 m/s 741 mmHg 56%
    12:00 +34°C° 0 mm 2 m/s 740 mmHg 43%
    13:00 +34°C° 0 mm 2 m/s 739 mmHg 45%
    14:00 +34°C° 0 mm 2 m/s 739 mmHg 46%
    15:00 +34°C° 0 mm 2 m/s 738 mmHg 48%
    16:00 +31°C° 0.1 mm 2 m/s 738 mmHg 59%
    17:00 +29°C° 0.1 mm 2 m/s 738 mmHg 70%
    18:00 +26°C° 0.1 mm 2 m/s 738 mmHg 81%
    19:00 +25°C° 0 mm 1 m/s 739 mmHg 86%
    20:00 +24°C° 0 mm 1 m/s 740 mmHg 91%
    21:00 +21°C° 0 mm 0 m/s 740 mmHg 96%
    22:00 +20°C° 0 mm 0 m/s 740 mmHg 97%
    23:00 +20°C° 0 mm 0 m/s 740 mmHg 97%

    Mâine, 31 Martie, Marţi

    Timp Temperatura Precipitaţii Vânt Presiune Umiditate
    00:00 +20°C° 0 mm 0 m/s 740 mmHg 98%
    01:00 +19°C° 0 mm 0 m/s 740 mmHg 98%
    02:00 +19°C° 0 mm 0 m/s 739 mmHg 99%
    03:00 +19°C° 0 mm 0 m/s 739 mmHg 99%
    04:00 +19°C° 0 mm 0 m/s 739 mmHg 99%
    05:00 +19°C° 0 mm 0 m/s 739 mmHg 99%
    06:00 +19°C° 0 mm 0 m/s 740 mmHg 99%
    07:00 +22°C° 0 mm 0 m/s 740 mmHg 86%
    08:00 +25°C° 0 mm 0 m/s 740 mmHg 73%
    09:00 +28°C° 0 mm 0 m/s 741 mmHg 60%
    10:00 +31°C° 0 mm 1 m/s 740 mmHg 55%
    11:00 +33°C° 0 mm 1 m/s 739 mmHg 50%
    12:00 +34°C° 0 mm 1 m/s 739 mmHg 45%
    13:00 +34°C° 0 mm 1 m/s 738 mmHg 47%
    14:00 +33°C° 0 mm 1 m/s 737 mmHg 48%
    15:00 +34°C° 0 mm 2 m/s 736 mmHg 50%
    16:00 +31°C° 0 mm 1 m/s 737 mmHg 58%
    17:00 +29°C° 0 mm 1 m/s 737 mmHg 66%
    18:00 +28°C° 0 mm 1 m/s 737 mmHg 75%
    19:00 +26°C° 0 mm 1 m/s 738 mmHg 78%
    20:00 +23°C° 0 mm 0 m/s 738 mmHg 81%
    21:00 +22°C° 0 mm 0 m/s 739 mmHg 84%
    22:00 +21°C° 0 mm 0 m/s 738 mmHg 87%
    23:00 +20°C° 0 mm 0 m/s 738 mmHg 90%

    Poimâine, 1 Aprilie, Miercuri

    Timp Temperatura Precipitaţii Vânt Presiune Umiditate
    00:00 +20°C° 0 mm 0 m/s 738 mmHg 93%
    01:00 +20°C° 0 mm 0 m/s 738 mmHg 95%
    02:00 +19°C° 0 mm 0 m/s 738 mmHg 96%
    03:00 +19°C° 0 mm 0 m/s 738 mmHg 97%
    04:00 +19°C° 0 mm 0 m/s 738 mmHg 97%
    05:00 +19°C° 0 mm 0 m/s 738 mmHg 97%
    06:00 +19°C° 0 mm 0 m/s 738 mmHg 97%
    07:00 +23°C° 0 mm 0 m/s 739 mmHg 83%
    08:00 +26°C° 0 mm 0 m/s 740 mmHg 68%
    09:00 +29°C° 0 mm 0 m/s 740 mmHg 53%
    10:00 +31°C° 0 mm 0 m/s 739 mmHg 47%
    11:00 +35°C° 0 mm 1 m/s 739 mmHg 41%
    12:00 +37°C° 0 mm 1 m/s 738 mmHg 36%
    13:00 +36°C° 0 mm 1 m/s 737 mmHg 36%
    14:00 +36°C° 0 mm 1 m/s 737 mmHg 35%
    15:00 +36°C° 0 mm 1 m/s 736 mmHg 35%
    16:00 +33°C° 0 mm 1 m/s 736 mmHg 44%
    17:00 +31°C° 0 mm 1 m/s 736 mmHg 52%
    18:00 +28°C° 0 mm 1 m/s 736 mmHg 60%
    19:00 +27°C° 0 mm 1 m/s 737 mmHg 68%
    20:00 +26°C° 0 mm 1 m/s 738 mmHg 77%
    21:00 +22°C° 0 mm 0 m/s 739 mmHg 85%
    22:00 +22°C° 0 mm 0 m/s 739 mmHg 89%
    23:00 +21°C° 0 mm 0 m/s 739 mmHg 93%

    2 Aprilie, Joi

    Timp Temperatura Precipitaţii Vânt Presiune Umiditate
    00:00 +21°C° 0 mm 0 m/s 739 mmHg 97%
    01:00 +21°C° 0 mm 0 m/s 739 mmHg 97%
    02:00 +21°C° 0 mm 0 m/s 739 mmHg 98%
    03:00 +20°C° 0 mm 0 m/s 739 mmHg 98%
    04:00 +20°C° 0 mm 0 m/s 739 mmHg 99%
    05:00 +20°C° 0 mm 0 m/s 739 mmHg 99%
    06:00 +20°C° 0 mm 0 m/s 739 mmHg 99%
    07:00 +23°C° 0 mm 0 m/s 740 mmHg 86%
    08:00 +26°C° 0 mm 0 m/s 740 mmHg 72%
    09:00 +29°C° 0 mm 0 m/s 740 mmHg 59%
    10:00 +31°C° 0 mm 0 m/s 740 mmHg 51%
    11:00 +34°C° 0 mm 1 m/s 739 mmHg 42%
    12:00 +36°C° 0 mm 1 m/s 738 mmHg 33%
    13:00 +36°C° 0 mm 1 m/s 738 mmHg 31%
    14:00 +37°C° 0 mm 1 m/s 737 mmHg 29%
    15:00 +37°C° 0 mm 1 m/s 736 mmHg 27%
    16:00 +34°C° 0 mm 1 m/s 736 mmHg 34%
    17:00 +31°C° 0 mm 1 m/s 736 mmHg 40%
    18:00 +29°C° 0 mm 1 m/s 737 mmHg 47%
    19:00 +27°C° 0 mm 1 m/s 737 mmHg 54%
    20:00 +25°C° 0 mm 1 m/s 738 mmHg 61%
    21:00 +22°C° 0 mm 0 m/s 739 mmHg 68%
    22:00 +21°C° 0 mm 0 m/s 739 mmHg 73%
    23:00 +20°C° 0 mm 0 m/s 739 mmHg 79%

    3 Aprilie, Vineri

    Timp Temperatura Precipitaţii Vânt Presiune Umiditate
    00:00 +19°C° 0 mm 0 m/s 739 mmHg 85%
    01:00 +19°C° 0 mm 0 m/s 739 mmHg 87%
    02:00 +19°C° 0 mm 0 m/s 739 mmHg 90%
    03:00 +18°C° 0 mm 0 m/s 738 mmHg 93%
    04:00 +18°C° 0 mm 0 m/s 739 mmHg 93%
    05:00 +18°C° 0 mm 0 m/s 739 mmHg 94%
    06:00 +18°C° 0 mm 0 m/s 739 mmHg 94%
    07:00 +22°C° 0 mm 0 m/s 739 mmHg 81%
    08:00 +25°C° 0 mm 0 m/s 740 mmHg 67%
    09:00 +30°C° 0 mm 1 m/s 740 mmHg 54%
    10:00 +33°C° 0 mm 1 m/s 739 mmHg 48%
    11:00 +35°C° 0 mm 1 m/s 739 mmHg 41%
    12:00 +37°C° 0 mm 1 m/s 738 mmHg 35%
    13:00 +37°C° 0 mm 1 m/s 737 mmHg 33%
    14:00 +37°C° 0 mm 1 m/s 736 mmHg 31%
    15:00 +37°C° 0 mm 1 m/s 735 mmHg 29%
    16:00 +35°C° 0 mm 1 m/s 735 mmHg 36%
    17:00 +32°C° 0 mm 1 m/s 736 mmHg 43%
    18:00 +29°C° 0 mm 1 m/s 736 mmHg 50%
    19:00 +28°C° 0 mm 1 m/s 737 mmHg 59%
    20:00 +26°C° 0 mm 1 m/s 737 mmHg 68%
    21:00 +24°C° 0 mm 1 m/s 738 mmHg 76%
    22:00 +22°C° 0 mm 0 m/s 738 mmHg 82%
    23:00 +21°C° 0 mm 0 m/s 738 mmHg 88%

    4 Aprilie, Sâmbătă

    Timp Temperatura Precipitaţii Vânt Presiune Umiditate
    00:00 +21°C° 0 mm 0 m/s 738 mmHg 93%
    01:00 +21°C° 0 mm 0 m/s 738 mmHg 94%
    02:00 +21°C° 0 mm 0 m/s 738 mmHg 94%
    03:00 +21°C° 0 mm 0 m/s 738 mmHg 95%
    04:00 +21°C° 0 mm 0 m/s 738 mmHg 94%
    05:00 +21°C° 0 mm 0 m/s 739 mmHg 94%
    06:00 +21°C° 0 mm 0 m/s 739 mmHg 94%
    07:00 +23°C° 0 mm 0 m/s 739 mmHg 81%
    08:00 +26°C° 0 mm 0 m/s 740 mmHg 68%
    09:00 +29°C° 0 mm 0 m/s 740 mmHg 55%
    10:00 +33°C° 0 mm 1 m/s 739 mmHg 47%
    11:00 +35°C° 0 mm 1 m/s 739 mmHg 40%
    12:00 +37°C° 0 mm 1 m/s 738 mmHg 33%
    13:00 +37°C° 0 mm 1 m/s 737 mmHg 30%
    14:00 +37°C° 0 mm 1 m/s 737 mmHg 27%
    15:00 +37°C° 0 mm 1 m/s 736 mmHg 25%
    16:00 +35°C° 0 mm 1 m/s 736 mmHg 32%
    17:00 +32°C° 0 mm 1 m/s 736 mmHg 39%
    18:00 +29°C° 0 mm 1 m/s 736 mmHg 46%
    19:00 +27°C° 0 mm 1 m/s 737 mmHg 54%
    20:00 +26°C° 0 mm 1 m/s 738 mmHg 63%
    21:00 +22°C° 0 mm 0 m/s 738 mmHg 71%
    22:00 +21°C° 0 mm 0 m/s 739 mmHg 77%
    23:00 +20°C° 0 mm 0 m/s 739 mmHg 83%
    Arată mai mult